Location: Anjeux
(47.8815°N, 6.2076°E)
Time: 10:10:31
(UTC+00:00)

AO-27 - Pass Details

Date: 12 December 2021
Orbit: 784 x 798 km, 98.9° (Epoch: 24 January)

Event Time Altitude Azimuth Distance (km) Brightness Sun altitude
Rises 17:17:08 0° 143° (SE) 3,291 10.7 -15.0°
Reaches altitude 10° 17:19:32 10° 137° (SE) 2,366 9.9 -15.4°
Maximum altitude 17:24:29 44° 67° (ENE) 1,094 7.9 -16.2°
Drops below altitude 10° 17:29:26 10° 356° (N) 2,382 10.0 -17.0°
Sets 17:31:52 0° 351° (N) 3,316 10.8 -17.4°
